Accueil
METAR-TAF:

METAR-TAF

Aéroports :

NWS Office

Majuro, Îles Marshall

latitude: 07-05N, longitude: 171-12E, altitude: 4 m

Observation

Le bulletin a été fait il y a 1 heure et 3 minutes, à 09:51 UTC
Vent calme
Température 28°C
Humidité 79%
Pression 1011 hPa
Visibilité: 24.1 km
Quelques nuages à une hauteur de 1500 ft
Nuages épars à une hauteur de 5000 ft
Ciel couvert à une hauteur de 30000 ft

METAR: PKMR 220951Z 00000KT 15SM FEW015 SCT050 OVC300 28/24 A2984 RMK SLP105 T02800239

Heure: 22:54 (10:54 UTC)


TAF: absent

Observations et prévisions météorologiques de plus de 4000 aéroports (messages METAR et TAF).

Les stations disponibles sont représentées par des disques jaunes et rouges sur la carte.

Passer la souris dessus pour voir le nom de la station.

Cliquer dessus pour voir les observations et prévisions météorologiques.

Pour changer de carte: cliquez sur les boutons verts avec une croix noire pour zoomer, sur le bouton vert avec un tiret pour effectuer un zoom arrière, ou sur les flèches vertes pour les cartes adjacentes.


METAR-TAF: